ROMMA est une association bénévole à but non lucratif. Votre soutien est indispensable : ADHERER à ROMMA ou FAIRE un DON

Briord - (01, Ain)

Bugey (281 m)   Longitude: 05° 29' 13" E   Latitude: 45° 46' 37" N Station partenaire n°15
 

Détail journalier du     <<     >>

Température Precipitation Humidité Pression Vent Dir Rafale Dir. rafale Ensol.
Heure (°C) (mm) (%) (hPa) (km/h) (km/h) (min)
01:00 5.1087103306ONO0
02:00 4.808810333NO15ONO0
03:00 3.309110331NO15NNO0
04:00 0.7092103300---0
05:00 2.209310321---13NNE0
06:00 3.608810324NNO23N0
07:00 4.508810329NNO21NNO0
08:00 4.4089103314NNO27NNO0
09:00 4.3090103415NNO29NNO0
10:00 5.3081103414NNO27N25
11:00 5.9071103415NNO32NNO60
12:00 6.7067103414N31NE60
13:00 7.2061103312NNO29N60
14:00 7.6067103313NO29ONO60
15:00 7.4063103414NO31ONO60
16:00 6.5060103411NO27ONO60
17:00 4.905810356NNO27ONO25
18:00 3.606110355NO29ONO0
19:00 3.0069103510NO27N0
20:00 2.807110358ONO24ONO0
21:00 1.807610356NO27NO0
22:00 2.3078103513NO26NO0
23:00 1.8080103511NO24NO0
minuit 1.6082103410NO23NNO0

Graphique du 02-01-2019

 

Serveur OMMA